KE5JQA-1 Weather Reports


Display with metric or nautical units.
time (UTC)temp
F
wind
direction
speed
MPH
gust
MPH
rain 1hr
in
rain 24hr
in
rain mn
in
humidity
%
barometer
mb
20260506135017 65 338 5.0 8.0 0.00 0.00 0.00 46 1012.3
20260506134516 66 0 5.0 11.0 0.00 0.00 0.00 49 1012.2
20260506134017 67 315 6.0 11.0 0.00 0.00 0.00 51 1012.1
20260506133517 70 315 5.0 10.0 0.00 0.00 0.00 51 1012.1
20260506133016 75 315 4.0 17.0 0.00 0.00 0.00 45 1011.8
20260506132516 77 0.0 1.0 0.00 0.00 0.00 35 1011.6
20260506132017 77 0.0 1.0 0.00 0.00 0.00 35 1011.4
20260506131517 77 0.0 1.0 0.00 0.00 0.00 35 1011.5
20260506131016 77 0.0 1.0 0.00 0.00 0.00 30 1011.4
20260506130516 76 0.0 1.0 0.00 0.00 0.00 29 1011.4
20260506130016 76 0.0 1.0 0.00 0.00 0.00 29 1011.3
20260506125516 75 0.0 1.0 0.00 0.00 0.00 30 1011.3
20260506125016 75 0.0 1.0 0.00 0.00 0.00 30 1011.2
20260506124517 75 0.0 1.0 0.00 0.00 0.00 30 1011.1
20260506124017 74 0.0 0.0 0.00 0.00 0.00 30 1011.2
20260506123516 74 0.0 0.0 0.00 0.00 0.00 31 1011.2
20260506123016 74 0.0 0.0 0.00 0.00 0.00 30 1011.0
20260506122516 74 0.0 0.0 0.00 0.00 0.00 31 1011.1
20260506122016 74 0.0 0.0 0.00 0.00 0.00 31 1011.1
20260506121536 74 0.0 0.0 0.00 0.00 0.00 31 1011.2
20260506121037 74 0.0 0.0 0.00 0.00 0.00 31 1011.3
20260506120516 74 0.0 0.0 0.00 0.00 0.00 31 1011.3
20260506120017 74 0.0 0.0 0.00 0.00 0.00 31 1011.2
20260506115516 74 0.0 0.0 0.00 0.00 0.00 31 1011.1
20260506115016 74 0.0 0.0 0.00 0.00 0.00 31 1011.1
20260506114516 74 0.0 0.0 0.00 0.00 0.00 31 1011.0
20260506114016 74 0.0 0.0 0.00 0.00 0.00 31 1011.0
20260506113517 74 0.0 0.0 0.00 0.00 0.00 31 1010.9
20260506113017 74 0.0 0.0 0.00 0.00 0.00 31 1010.8
20260506112517 74 0.0 1.0 0.00 0.00 0.00 31 1010.8
20260506112016 74 0.0 0.0 0.00 0.00 0.00 31 1010.8
20260506111557 74 0.0 0.0 0.00 0.00 0.00 31 1010.8
20260506111017 74 0.0 0.0 0.00 0.00 0.00 31 1010.8
20260506110516 74 0.0 0.0 0.00 0.00 0.00 31 1010.7
20260506110016 74 0.0 1.0 0.00 0.00 0.00 31 1010.7
20260506105516 74 0.0 0.0 0.00 0.00 0.00 31 1010.6
20260506105016 74 0.0 0.0 0.00 0.00 0.00 31 1010.5
20260506104516 74 0.0 0.0 0.00 0.00 0.00 30 1010.3
20260506104037 74 0.0 0.0 0.00 0.00 0.00 30 1010.2
20260506103517 74 0.0 0.0 0.00 0.00 0.00 30 1010.2
20260506103038 74 0.0 0.0 0.00 0.00 0.00 30 1010.2
20260506102516 74 0.0 0.0 0.00 0.00 0.00 30 1010.2
20260506102016 74 0.0 1.0 0.00 0.00 0.00 30 1010.3
20260506101516 74 0.0 1.0 0.00 0.00 0.00 30 1010.3
20260506101016 75 0.0 0.0 0.00 0.00 0.00 30 1010.2
20260506100537 75 0.0 0.0 0.00 0.00 0.00 30 1010.2
20260506100057 75 0.0 0.0 0.00 0.00 0.00 30 1010.2
20260506095516 75 0.0 0.0 0.00 0.00 0.00 30 1010.1
20260506095016 75 0.0 0.0 0.00 0.00 0.00 30 1010.2
20260506094516 75 0.0 1.0 0.00 0.00 0.00 30 1010.0
20260506094016 75 0.0 1.0 0.00 0.00 0.00 30 1010.3
20260506093516 75 0.0 1.0 0.00 0.00 0.00 30 1010.2
20260506093016 75 0.0 0.0 0.00 0.00 0.00 30 1010.1
20260506092536 75 0.0 0.0 0.00 0.00 0.00 30 1010.1
20260506092016 75 0.0 1.0 0.00 0.00 0.00 30 1010.0
20260506091516 75 0.0 2.0 0.00 0.00 0.00 29 1010.1
20260506091016 75 0.0 1.0 0.00 0.00 0.00 29 1010.0
20260506090516 75 0.0 2.0 0.00 0.00 0.00 29 1010.1
20260506090017 75 0.0 2.0 0.00 0.00 0.00 29 1010.0
20260506085516 75 0.0 0.0 0.00 0.00 0.00 29 1010.0
20260506085017 74 0.0 1.0 0.00 0.00 0.00 29 1009.9
20260506084517 74 0.0 1.0 0.00 0.00 0.00 29 1009.9
20260506084017 74 0.0 0.0 0.00 0.00 0.00 28 1010.0
20260506083516 74 0.0 1.0 0.00 0.00 0.00 28 1009.9
20260506083016 74 0.0 1.0 0.00 0.00 0.00 28 1009.9
20260506082516 74 0.0 1.0 0.00 0.00 0.00 29 1009.9
20260506082016 74 0.0 1.0 0.00 0.00 0.00 29 1009.9
20260506081517 74 0.0 2.0 0.00 0.00 0.00 29 1010.0
20260506081036 74 0.0 3.0 0.00 0.00 0.00 29 1010.0
20260506080516 74 0.0 2.0 0.00 0.00 0.00 29 1009.9
20260506073517 73 0.0 2.0 0.00 0.00 0.00 30 1009.9
20260506073017 73 0.0 1.0 0.00 0.00 0.00 30 1009.9
20260506072516 73 0.0 1.0 0.00 0.00 0.00 30 1010.0
20260506072016 73 0.0 3.0 0.00 0.00 0.00 30 1009.8
20260506071517 73 0.0 3.0 0.00 0.00 0.00 30 1009.8
20260506071016 73 0.0 4.0 0.00 0.00 0.00 30 1009.9
20260506070516 73 0.0 2.0 0.00 0.00 0.00 30 1009.8
20260506062516 73 0.0 2.0 0.00 0.00 0.00 33 1009.5
20260506062016 73 0.0 1.0 0.00 0.00 0.00 35 1009.5
20260506061516 73 0.0 1.0 0.00 0.00 0.00 36 1009.5
20260506061016 73 0.0 2.0 0.00 0.00 0.00 37 1009.6
20260506060537 74 0.0 1.0 0.00 0.00 0.00 38 1009.5
20260506051037 74 0.0 2.0 0.00 0.00 0.00 42 1009.3
20260506050517 74 225 1.0 4.0 0.00 0.00 0.00 42 1009.5
20260506045036 74 0.0 2.0 0.00 0.00 0.00 45 1009.6
20260506044516 75 0.0 0.0 0.00 0.00 0.00 45 1009.7
20260506044016 75 0.0 2.0 0.00 0.00 0.00 45 1009.7
20260506043536 75 0.0 2.0 0.00 0.00 0.00 45 1009.7
20260506043016 75 0.0 3.0 0.00 0.00 0.00 46 1009.6
20260506042516 75 0.0 3.0 0.00 0.00 0.00 46 1009.6
20260506042016 75 0.0 2.0 0.00 0.00 0.00 47 1009.4
20260506041516 75 225 1.0 3.0 0.00 0.00 0.00 47 1009.2
20260506041036 75 0.0 3.0 0.00 0.00 0.00 48 1009.1
20260506040537 75 0.0 2.0 0.00 0.00 0.00 48 1009.0
20260506040017 75 0.0 3.0 0.00 0.00 0.00 49 1009.0
20260506035537 75 0.0 2.0 0.00 0.00 0.00 49 1009.0
20260506035016 76 0.0 3.0 0.00 0.00 0.00 50 1008.9
20260506034515 76 0.0 2.0 0.00 0.00 0.00 50 1009.0
20260506034016 76 0.0 2.0 0.00 0.00 0.00 50 1008.8
20260506033516 76 225 1.0 3.0 0.00 0.00 0.00 51 1008.8
20260506033016 76 0.0 1.0 0.00 0.00 0.00 51 1008.6
20260506032516 76 0.0 2.0 0.00 0.00 0.00 52 1008.7
20260506032017 76 0.0 2.0 0.00 0.00 0.00 53 1008.5
20260506031536 77 0.0 3.0 0.00 0.00 0.00 53 1008.3
20260506031016 77 225 1.0 3.0 0.00 0.00 0.00 54 1008.4
20260506030516 77 0.0 4.0 0.00 0.00 0.00 55 1008.4
20260506030016 77 0.0 3.0 0.00 0.00 0.00 55 1008.5
20260506025538 77 0.0 4.0 0.00 0.00 0.00 55 1008.4
20260506025016 78 225 1.0 4.0 0.00 0.00 0.00 56 1008.3
20260506024516 78 225 1.0 5.0 0.00 0.00 0.00 56 1008.3
20260506024016 78 0.0 2.0 0.00 0.00 0.00 56 1008.3
20260506023517 78 203 1.0 5.0 0.00 0.00 0.00 56 1008.2
20260506023016 78 203 1.0 5.0 0.00 0.00 0.00 56 1008.0
20260506022516 78 225 1.0 4.0 0.00 0.00 0.00 56 1008.0
20260506022055 79 0.0 5.0 0.00 0.00 0.00 56 1007.9
20260506021516 79 225 2.0 7.0 0.00 0.00 0.00 56 1007.8
20260506021016 79 135 1.0 4.0 0.00 0.00 0.00 56 1007.7
20260506020516 79 135 1.0 7.0 0.00 0.00 0.00 56 1007.8
20260506020018 79 225 1.0 3.0 0.00 0.00 0.00 56 1007.7
20260506015519 80 225 1.0 3.0 0.00 0.00 0.00 56 1007.7
20260506015017 80 225 1.0 5.0 0.00 0.00 0.00 56 1007.7
20260506014536 80 225 2.0 6.0 0.00 0.00 0.00 56 1007.7
20260506014017 80 203 1.0 7.0 0.00 0.00 0.00 56 1007.6
20260506013518 80 203 3.0 7.0 0.00 0.00 0.00 56 1007.7
20260506013018 80 0.0 3.0 0.00 0.00 0.00 56 1007.6
20260506012537 80 0.0 3.0 0.00 0.00 0.00 57 1007.5
20260506012017 81 0.0 1.0 0.00 0.00 0.00 57 1007.5
20260506011538 81 0.0 1.0 0.00 0.00 0.00 56 1007.5
20260506011018 81 0.0 0.0 0.00 0.00 0.00 56 1007.5
20260506010517 82 0.0 1.0 0.00 0.00 0.00 56 1007.4
20260506010018 82 0.0 1.0 0.00 0.00 0.00 56 1007.5
20260506005519 82 0.0 2.0 0.00 0.00 0.00 55 1007.2
20260506005018 83 0.0 1.0 0.00 0.00 0.00 55 1007.3
20260506004524 83 0.0 2.0 0.00 0.00 0.00 55 1007.3
20260506004018 83 0.0 4.0 0.00 0.00 0.00 55 1007.3
20260506003518 83 225 1.0 6.0 0.00 0.00 0.00 55 1007.1
20260506003018 83 225 1.0 4.0 0.00 0.00 0.00 55 1007.1
20260506002518 83 0.0 3.0 0.00 0.00 0.00 55 1007.2
20260506002018 83 0.0 2.0 0.00 0.00 0.00 54 1007.1
20260506001538 84 203 1.0 6.0 0.00 0.00 0.00 54 1006.9
20260506001019 84 225 1.0 3.0 0.00 0.00 0.00 53 1006.8
20260506000517 84 0.0 1.0 0.00 0.00 0.00 53 1006.8
20260506000038 84 0.0 2.0 0.00 0.00 0.00 53 1006.6
20260505235519 84 0.0 2.0 0.00 0.00 0.00 53 1006.7
20260505235017 84 0.0 2.0 0.00 0.00 0.00 53 1006.6
20260505234517 84 225 1.0 2.0 0.00 0.00 0.00 53 1006.5
20260505234017 85 225 1.0 6.0 0.00 0.00 0.00 52 1006.4
20260505233517 85 225 1.0 7.0 0.00 0.00 0.00 52 1006.4
20260505233017 85 225 1.0 6.0 0.00 0.00 0.00 52 1006.5
20260505232517 86 225 1.0 6.0 0.00 0.00 0.00 51 1006.4
20260505232017 86 225 2.0 8.0 0.00 0.00 0.00 51 1006.7
20260505231517 85 225 1.0 6.0 0.00 0.00 0.00 52 1006.6
20260505231018 86 225 3.0 9.0 0.00 0.00 0.00 51 1006.6
20260505230538 86 225 2.0 7.0 0.00 0.00 0.00 51 1006.6
20260505230017 86 225 1.0 4.0 0.00 0.00 0.00 51 1006.6
20260505225558 85 225 2.0 8.0 0.00 0.00 0.00 51 1006.6
20260505225017 85 225 2.0 6.0 0.00 0.00 0.00 51 1006.6
20260505224518 85 225 2.0 7.0 0.00 0.00 0.00 51 1006.7
20260505224038 85 225 3.0 10.0 0.00 0.00 0.00 51 1006.9
20260505223517 86 225 3.0 9.0 0.00 0.00 0.00 50 1006.7
20260505223017 86 135 2.0 6.0 0.00 0.00 0.00 50 1006.8
20260505222537 86 225 1.0 6.0 0.00 0.00 0.00 51 1006.8
20260505222017 86 225 2.0 7.0 0.00 0.00 0.00 51 1006.6
20260505221517 86 225 2.0 9.0 0.00 0.00 0.00 51 1006.7
20260505221017 86 135 2.0 6.0 0.00 0.00 0.00 50 1006.7
20260505220517 86 225 3.0 9.0 0.00 0.00 0.00 49 1006.8
20260505220017 86 225 3.0 9.0 0.00 0.00 0.00 49 1006.7
20260505215517 86 203 3.0 13.0 0.00 0.00 0.00 50 1006.8
20260505215019 86 248 3.0 8.0 0.00 0.00 0.00 50 1006.9
20260505214537 86 225 4.0 11.0 0.00 0.00 0.00 49 1007.1
20260505214017 86 225 6.0 10.0 0.00 0.00 0.00 50 1007.1
20260505213517 86 225 5.0 9.0 0.00 0.00 0.00 49 1007.0
20260505213018 87 225 5.0 10.0 0.00 0.00 0.00 48 1006.9
20260505212537 87 225 3.0 11.0 0.00 0.00 0.00 49 1007.0
20260505212017 87 203 3.0 9.0 0.00 0.00 0.00 50 1007.0
20260505211517 86 225 3.0 9.0 0.00 0.00 0.00 50 1007.1
20260505211017 86 225 4.0 10.0 0.00 0.00 0.00 50 1007.1
20260505210517 86 225 4.0 9.0 0.00 0.00 0.00 49 1007.1
20260505210037 86 225 4.0 11.0 0.00 0.00 0.00 50 1007.1
20260505205518 86 225 4.0 13.0 0.00 0.00 0.00 49 1007.1
20260505205017 86 225 5.0 13.0 0.00 0.00 0.00 49 1007.1
20260505204557 86 225 5.0 11.0 0.00 0.00 0.00 49 1007.1
20260505204017 86 225 3.0 10.0 0.00 0.00 0.00 49 1007.2
20260505203517 86 225 4.0 10.0 0.00 0.00 0.00 49 1007.3
20260505203017 85 225 4.0 11.0 0.00 0.00 0.00 49 1007.4
20260505202517 85 203 5.0 11.0 0.00 0.00 0.00 49 1007.5
20260505202017 86 225 4.0 15.0 0.00 0.00 0.00 49 1007.4
20260505201517 85 225 3.0 7.0 0.00 0.00 0.00 50 1007.6
20260505201017 84 225 6.0 14.0 0.00 0.00 0.00 50 1007.6
20260505200517 84 225 5.0 12.0 0.00 0.00 0.00 49 1007.8
20260505200017 84 225 5.0 13.0 0.00 0.00 0.00 50 1008.0
20260505195517 84 225 3.0 8.0 0.00 0.00 0.00 49 1008.0
20260505195017 83 225 5.0 11.0 0.00 0.00 0.00 50 1008.1
20260505194557 83 225 5.0 13.0 0.00 0.00 0.00 50 1008.1
20260505194017 82 225 5.0 12.0 0.00 0.00 0.00 50 1008.1
20260505193517 83 225 4.0 13.0 0.00 0.00 0.00 49 1008.2
20260505193138 83 225 3.0 13.0 0.00 0.00 0.00 50 1008.3
20260505192517 82 225 6.0 12.0 0.00 0.00 0.00 50 1008.4
20260505192017 83 225 4.0 11.0 0.00 0.00 0.00 50 1008.5
20260505191517 83 225 4.0 12.0 0.00 0.00 0.00 50 1008.6
20260505191037 82 248 5.0 16.0 0.00 0.00 0.00 50 1008.7
20260505190537 82 248 4.0 13.0 0.00 0.00 0.00 49 1008.8
20260505190017 82 225 5.0 13.0 0.00 0.00 0.00 48 1009.0
20260505185517 82 225 3.0 11.0 0.00 0.00 0.00 48 1009.0
20260505185037 81 225 4.0 13.0 0.00 0.00 0.00 48 1008.9
20260505184517 81 225 4.0 10.0 0.00 0.00 0.00 47 1008.9
20260505184057 80 225 4.0 9.0 0.00 0.00 0.00 47 1009.0
20260505183517 80 225 4.0 9.0 0.00 0.00 0.00 47 1009.1
20260505183017 80 225 4.0 9.0 0.00 0.00 0.00 47 1009.0
20260505182517 79 225 6.0 19.0 0.00 0.00 0.00 47 1009.1
20260505182017 79 225 4.0 9.0 0.00 0.00 0.00 46 1009.1
20260505181517 79 225 4.0 14.0 0.00 0.00 0.00 46 1009.2
20260505181117 78 248 4.0 11.0 0.00 0.00 0.00 46 1009.1
20260505180517 78 225 4.0 10.0 0.00 0.00 0.00 46 1009.3
20260505180017 78 225 4.0 11.0 0.00 0.00 0.00 46 1009.3
20260505175517 78 225 5.0 11.0 0.00 0.00 0.00 46 1009.4
20260505175037 77 203 4.0 11.0 0.00 0.00 0.00 46 1009.5
20260505174537 77 225 5.0 19.0 0.00 0.00 0.00 46 1009.4
20260505174037 77 225 5.0 13.0 0.00 0.00 0.00 47 1009.5
20260505173537 77 225 6.0 18.0 0.00 0.00 0.00 46 1009.4
20260505173017 77 225 6.0 15.0 0.00 0.00 0.00 47 1009.5
20260505172557 77 225 4.0 11.0 0.00 0.00 0.00 46 1009.5
20260505172017 77 225 3.0 12.0 0.00 0.00 0.00 47 1009.4
20260505171517 77 225 4.0 11.0 0.00 0.00 0.00 47 1009.4
20260505171017 77 225 5.0 13.0 0.00 0.00 0.00 46 1009.3
20260505170517 77 225 4.0 8.0 0.00 0.00 0.00 46 1009.4
20260505170016 77 225 4.0 12.0 0.00 0.00 0.00 46 1009.3
20260505165517 77 225 5.0 14.0 0.00 0.00 0.00 46 1009.5
20260505165016 77 225 6.0 15.0 0.00 0.00 0.00 46 1009.3
20260505164517 77 203 4.0 8.0 0.00 0.00 0.00 46 1009.2
20260505164039 77 225 3.0 8.0 0.00 0.00 0.00 46 1009.3
20260505163517 76 225 4.0 9.0 0.00 0.00 0.00 46 1009.4
20260505163037 76 225 4.0 10.0 0.00 0.00 0.00 47 1009.4
20260505162516 76 225 4.0 11.0 0.00 0.00 0.00 47 1009.6
20260505162016 76 225 5.0 10.0 0.00 0.00 0.00 46 1009.7
20260505161517 76 225 4.0 10.0 0.00 0.00 0.00 47 1009.7
20260505161016 76 225 4.0 13.0 0.00 0.00 0.00 47 1009.6
20260505160516 76 225 5.0 14.0 0.00 0.00 0.00 47 1009.6
20260505153017 75 225 4.0 13.0 0.00 0.00 0.00 48 1009.5
20260505152536 74 225 3.0 10.0 0.00 0.00 0.00 48 1009.4
20260505152016 74 225 3.0 9.0 0.00 0.00 0.00 48 1009.5
20260505151537 74 225 5.0 12.0 0.00 0.00 0.00 48 1009.6
20260505151016 74 225 6.0 13.0 0.00 0.00 0.00 48 1009.7
20260505150516 74 225 4.0 10.0 0.00 0.00 0.00 47 1009.6
20260505140516 73 225 5.0 11.0 0.00 0.00 0.00 48 1009.3